Weather History for Perryton, TX

Change the Weather History Date:

Wednesday, July 31, 2013

  Actual Average Record
Temperature  
Mean Temperature 78 °F -  
Max Temperature 94 °F 92 °F 105 °F (1980)
Min Temperature 63 °F 63 °F 51 °F (1971)
Cooling Degree Days 13    
Growing Degree Days 28 (Base 50)    
Moisture  
Dew Point 65 °F    
Average Humidity 71    
Maximum Humidity 98    
Minimum Humidity 33    
Precipitation  
Precipitation 0.01 in - - ()
Sea Level Pressure  
Sea Level Pressure 30.18 in    
Wind  
Wind Speed 6 mph (ESE)    
Max Wind Speed 23 mph    
Max Gust Speed 29 mph    
Visibility 7 miles    
Events      
Averages and records for this station are not official NWS values.
T = Trace of Precipitation, MM = Missing Value Source: NWS Daily Summary

Daily Weather History Graph

Daily Weather History Graph

Search for Another Location

Airport:

Trip Planner

Search our weather history database for the weather conditions in past years. The results will help you decide how hot, cold, wet, or windy it might be!

Date:

Astronomy

Jul. 31, 2013 Rise Set
Actual Time 6:48 AM CDT 8:49 PM CDT
Civil Twilight 6:20 AM CDT 9:17 PM CDT
Nautical Twilight 5:45 AM CDT 9:52 PM CDT
Astronomical Twilight 5:08 AM CDT 10:29 PM CDT
Moon 1:45 AM CDT (7/31) 4:06 PM CDT (7/31)
Length of Visible Light 14h 57m
Length of Day
14h 00m
Waning Crescent, 31% of the Moon is Illuminated
Jul 31
Waning Crescent
Aug 6
New
Aug 14
First Quarter
Aug 20
Full
Aug 28
Last Quarter

Hourly Weather History & Observations

Time (CDT) Temp. Heat Index Dew Point Humidity Pressure Visibility Wind Dir Wind Speed Gust Speed Precip Events Conditions
12:15 AM 72.0 °F - 66.2 °F 82% 30.17 in 10.0 mi ESE 6.9 mph - N/A   Clear
12:35 AM 71.1 °F - 65.8 °F 84% 30.17 in 10.0 mi ESE 4.6 mph - N/A   Clear
12:55 AM 70.2 °F - 66.2 °F 87% 30.17 in 10.0 mi ESE 4.6 mph - N/A   Clear
1:15 AM 69.8 °F - 66.4 °F 89% 30.17 in 10.0 mi ESE 4.6 mph - N/A   Clear
1:55 AM 68.9 °F - 65.8 °F 90% 30.17 in 10.0 mi SE 4.6 mph - N/A   Clear
2:15 AM 68.9 °F - 66.4 °F 92% 30.17 in 7.0 mi SE 4.6 mph - N/A   Clear
2:35 AM 67.5 °F - 65.3 °F 93% 30.17 in 7.0 mi SE 5.8 mph - N/A   Clear
2:55 AM 68.2 °F - 66.4 °F 94% 30.16 in 5.0 mi SE 3.5 mph - N/A   Clear
3:15 AM 68.2 °F - 66.6 °F 95% 30.16 in 5.0 mi Calm Calm - N/A   Clear
3:35 AM 68.0 °F - 66.4 °F 95% 30.16 in 5.0 mi Calm Calm - N/A   Clear
3:55 AM 67.8 °F - 66.4 °F 95% 30.16 in 4.0 mi ESE 3.5 mph - N/A   Clear
4:15 AM 67.5 °F - 66.4 °F 96% 30.17 in 2.5 mi ESE 4.6 mph - N/A   Clear
4:35 AM 67.1 °F - 65.8 °F 96% 30.17 in 0.8 mi ESE 3.5 mph - N/A   Unknown
4:55 AM 66.6 °F - 65.7 °F 97% 30.17 in 0.5 mi East 4.6 mph - N/A   Unknown
5:15 AM 66.2 °F - 65.3 °F 97% 30.17 in 1.0 mi Calm Calm - N/A   Unknown
5:35 AM 65.8 °F - 64.9 °F 97% 30.18 in 0.5 mi East 4.6 mph - N/A   Unknown
5:55 AM 65.5 °F - 64.6 °F 97% 30.19 in 0.8 mi East 4.6 mph - N/A   Unknown
6:15 AM 65.7 °F - 64.8 °F 97% 30.19 in 0.5 mi East 3.5 mph - N/A   Unknown
6:35 AM 65.3 °F - 64.4 °F 97% 30.20 in 3.0 mi East 3.5 mph - N/A   Clear
6:55 AM 63.7 °F - 62.8 °F 97% 30.21 in 0.2 mi Calm Calm - N/A   Unknown
7:15 AM 63.5 °F - 62.6 °F 97% 30.22 in 0.2 mi Calm Calm - N/A   Unknown
7:35 AM 64.6 °F - 63.9 °F 98% 30.22 in 0.8 mi Calm Calm - N/A   Unknown
7:55 AM 66.7 °F - 65.8 °F 97% 30.23 in 2.0 mi East 3.5 mph - N/A   Clear
8:15 AM 68.0 °F - 67.1 °F 97% 30.24 in 2.5 mi East 5.8 mph - N/A   Mostly Cloudy
8:35 AM 69.4 °F - 68.5 °F 97% 30.24 in 2.5 mi East 6.9 mph - N/A   Overcast
8:55 AM 69.8 °F - 68.9 °F 97% 30.25 in 1.5 mi East 6.9 mph - N/A   Overcast
9:15 AM 69.8 °F - 68.9 °F 97% 30.25 in 1.5 mi ESE 8.1 mph - N/A   Overcast
9:35 AM 69.8 °F - 68.7 °F 96% 30.25 in 1.5 mi East 9.2 mph - N/A   Overcast
9:55 AM 70.3 °F - 68.9 °F 95% 30.25 in 4.0 mi ESE 6.9 mph - N/A   Overcast
10:15 AM 72.0 °F - 68.5 °F 89% 30.25 in 7.0 mi ESE 6.9 mph - N/A   Overcast
10:35 AM 75.2 °F - 67.6 °F 77% 30.24 in 10.0 mi SE 6.9 mph - N/A   Mostly Cloudy
10:55 AM 76.6 °F - 67.8 °F 74% 30.24 in 10.0 mi ESE 8.1 mph - N/A   Scattered Clouds
11:15 AM 78.1 °F - 67.1 °F 69% 30.24 in 10.0 mi SE 6.9 mph - N/A   Clear
11:35 AM 79.5 °F - 66.6 °F 64% 30.23 in 10.0 mi South 3.5 mph - N/A   Clear
11:55 AM 81.3 °F 83.6 °F 66.7 °F 61% 30.22 in 10.0 mi South 6.9 mph - N/A   Clear
12:15 PM 82.4 °F 84.6 °F 66.4 °F 58% 30.21 in 10.0 mi SE 4.6 mph - N/A   Clear
12:35 PM 84.4 °F 86.8 °F 66.4 °F 55% 30.21 in 10.0 mi Calm Calm - N/A   Clear
12:55 PM 85.1 °F 87.1 °F 65.5 °F 52% 30.20 in 10.0 mi Calm Calm - N/A   Clear
1:15 PM 87.4 °F 89.5 °F 65.3 °F 48% 30.19 in 10.0 mi South 3.5 mph - N/A   Clear
1:35 PM 87.6 °F 89.7 °F 65.7 °F 48% 30.19 in 10.0 mi South 4.6 mph - N/A   Clear
1:55 PM 89.8 °F 91.4 °F 64.6 °F 43% 30.18 in 10.0 mi Calm Calm - N/A   Clear
2:15 PM 92.1 °F 93.6 °F 63.7 °F 39% 30.17 in 10.0 mi SSE 3.5 mph - N/A   Clear
2:35 PM 91.4 °F 92.1 °F 62.6 °F 38% 30.17 in 10.0 mi NNE 3.5 mph - N/A   Clear
2:55 PM 93.0 °F 93.4 °F 61.3 °F 35% 30.16 in 10.0 mi ENE 6.9 mph - N/A   Clear
3:15 PM 93.2 °F 92.9 °F 60.1 °F 33% 30.15 in 10.0 mi ESE 4.6 mph - N/A   Clear
3:35 PM 92.8 °F 92.4 °F 59.5 °F 33% 30.14 in 10.0 mi Calm Calm - N/A   Clear
3:55 PM 92.1 °F 92.1 °F 60.8 °F 35% 30.13 in 10.0 mi ESE 8.1 mph - N/A   Clear
4:15 PM 91.8 °F 92.2 °F 61.7 °F 37% 30.13 in 10.0 mi ESE 10.4 mph - N/A   Clear
4:35 PM 91.8 °F 91.9 °F 61.0 °F 36% 30.14 in 10.0 mi East 9.2 mph 16.1 mph N/A   Clear
4:55 PM 91.6 °F 91.6 °F 60.8 °F 36% 30.12 in 10.0 mi ESE 11.5 mph 16.1 mph N/A   Clear
5:15 PM 91.0 °F 91.2 °F 61.3 °F 37% 30.11 in 10.0 mi SE 12.7 mph - N/A   Clear
5:35 PM 90.3 °F 89.3 °F 58.3 °F 34% 30.13 in 10.0 mi ESE 11.5 mph - N/A   Clear
5:55 PM 89.6 °F 88.9 °F 59.2 °F 36% 30.12 in 10.0 mi SE 15.0 mph - N/A   Clear
6:15 PM 88.7 °F 88.3 °F 60.1 °F 38% 30.11 in 10.0 mi ESE 13.8 mph - N/A   Clear
6:35 PM 88.3 °F 87.3 °F 58.5 °F 36% 30.10 in 10.0 mi SE 15.0 mph - N/A   Clear
6:55 PM 87.4 °F 87.4 °F 60.8 °F 41% 30.11 in 10.0 mi SE 13.8 mph 20.7 mph N/A   Clear
7:15 PM 86.4 °F 87.3 °F 63.5 °F 46% 30.12 in 10.0 mi SE 13.8 mph - N/A   Clear
7:35 PM 85.3 °F 86.6 °F 63.9 °F 49% 30.12 in 10.0 mi ESE 17.3 mph 21.9 mph N/A   Clear
7:55 PM 84.4 °F 85.2 °F 63.0 °F 48% 30.14 in 10.0 mi ESE 15.0 mph - N/A   Clear
8:15 PM 83.7 °F 84.5 °F 62.6 °F 49% 30.17 in 10.0 mi East 6.9 mph - N/A   Clear
8:35 PM 77.5 °F - 63.5 °F 62% 30.20 in 10.0 mi North 13.8 mph 27.6 mph N/A   Clear
8:55 PM 75.4 °F - 65.8 °F 72% 30.19 in 10.0 mi NE 15.0 mph - 0.01 in   Clear
9:15 PM 77.2 °F - 66.0 °F 68% 30.21 in 10.0 mi NNE 16.1 mph 21.9 mph N/A   Clear
9:35 PM 76.1 °F - 66.2 °F 71% 30.21 in 10.0 mi NNE 23.0 mph 28.8 mph N/A   Clear
9:55 PM 74.5 °F - 66.4 °F 76% 30.20 in 10.0 mi NNE 19.6 mph 28.8 mph N/A   Scattered Clouds
10:15 PM 72.7 °F - 67.5 °F 84% 30.19 in 10.0 mi NNE 16.1 mph - N/A   Scattered Clouds
10:35 PM 73.8 °F - 66.4 °F 78% 30.19 in 10.0 mi NE 9.2 mph - N/A   Scattered Clouds
10:55 PM 72.7 °F - 67.6 °F 84% 30.16 in 10.0 mi East 13.8 mph - N/A   Scattered Clouds
11:15 PM 73.4 °F - 67.3 °F 81% 30.17 in 10.0 mi ESE 4.6 mph - N/A   Clear
11:35 PM 73.9 °F - 66.7 °F 78% 30.17 in 10.0 mi NNW 5.8 mph - N/A   Clear
11:55 PM 71.8 °F - 67.6 °F 87% 30.17 in 10.0 mi North 4.6 mph - N/A   Clear